Regional Weather Roundup
Issued by NWS

Home | Current Version | Previous Version | Text Only | Print | Product List | Glossary Off
Versions: 1 2 3 4 5 6 7 8 9 10 11 12 13 14 15 16 17 18 19 20 21 22 23 24 25 26 27 28 29 30 31 32 33 34 35 36 37 38 39 40 41 42 43 44 45 46 47 48 49 50

000
ASUS43 KLMK 231410
RWRKY
KENTUCKY REGIONAL WEATHER ROUNDUP
NATIONAL WEATHER SERVICE LOUISVILLE KY
1000 AM EDT WED MAY 23 2018

NOTE "FAIR" INDICATES FEW OR NO CLOUDS BELOW 12,000 FEET
WITH NO SIGNIFICANT WEATHER AND/OR OBSTRUCTIONS TO VISIBILITY.

KYZ001>023-026-027-061>063-070>075-231500-
WESTERN AND SOUTH CENTRAL KENTUCKY

CITY           SKY/WX    TMP DP  RH WIND       PRES   REMARKS
PADUCAH        FAIR      78  67  68 NE5       30.12R
HENDERSON      NOT AVBL
OWENSBORO      FAIR      74  65  73 E6        30.13R
HOPKINSVILLE   FAIR      77  70  79 N6        30.11R
BOWLING GREEN  CLOUDY    71  70  96 E3        30.13R FOG
GLASGOW        CLOUDY    69  68  97 NE5       30.13R FOG
$$

KYZ024-025-028>034-038-045-046-053-231500-
NORTH CENTRAL KENTUCKY

CITY           SKY/WX    TMP DP  RH WIND       PRES   REMARKS
LOUISVILLE/SDF FAIR      77  61  57 N6        30.13R
LOUISVILLE/LOU FAIR      76  63  64 VRB5      30.13R
FORT KNOX      FAIR      74  61  64 NE7       30.14R
$$

KYZ035>037-039>044-047>052-055>060-089>105-231500-
NORTHEAST KENTUCKY

CITY           SKY/WX    TMP DP  RH WIND       PRES   REMARKS
LEXINGTON      FAIR      75  63  66 NE6       30.14R
COVINGTON      FAIR      70  60  70 NE7       30.15R
FRANKFORT      FAIR      73  63  70 NE3       30.12R
$$

KYZ054-064>069-076>088-106>120-231500-
SOUTHEAST KENTUCKY

CITY           SKY/WX    TMP DP  RH WIND       PRES   REMARKS
JACKSON        CLOUDY    70  67  90 CALM      30.14R
LONDON         CLOUDY    70  67  90 CALM      30.14R
SOMERSET       PTSUNNY   70  70 100 MISG      30.15R
MIDDLESBORO    CLOUDY    66  66 100 CALM      30.15R
MONTICELLO     FAIR      72  69  90 W3        30.15R
$$




USA.gov is the U.S. government's official web portal to all federal, state and local government web resources and services.